Tracking 29892 objects as of 21-Nov-2024
HD Live streaming from Space Station
objects crossing your sky now

ARIANE 44LP DEB

Track ARIANE 44LP DEB now!


NORAD ID: 25539
Int'l Code: 1988-109F
Perigee: 395.0 km
Apogee: 30,105.1 km
Inclination: 6.9 °
Period: 527.3 minutes
Semi major axis: 21621 km
RCS: 0.804 m2 (medium)
Launch date: December 11, 1988
Source: France (FR)
Launch site: FRENCH GUIANA (FRGUI)

Note: This is SATELLITE DEBRIS
Your satellite tracking list
Your tracking list is empty




NASA's NSSDC Master Catalog

Two Line Element Set (TLE):
1 25539U 88109F   24325.38505890  .00015616  00000-0  25914-1 0  9995
2 25539   6.9244 246.8068 6870659  28.9190 355.8899  2.73078729245110
Source of the keplerian elements: AFSPC